www.pogodaiklimat.ru
ПОГОДА в Джефферсон-Сити
Время
и дата
18:53 04.02
19:53 04.02
20:53 04.02
21:53 04.02
22:53 04.02
23:53 04.02
00:53 05.02
01:53 05.02
02:53 05.02
03:53 05.02
04:53 05.02
05:53 05.02
06:53 05.02
07:53 05.02
08:53 05.02
09:53 05.02
10:53 05.02
11:53 05.02
12:53 05.02
13:53 05.02
14:53 05.02
15:53 05.02
16:53 05.02
17:53 05.02
18:53 05.02
19:53 05.02
20:53 05.02
21:53 05.02
22:53 05.02
23:53 05.02
00:53 06.02
01:53 06.02
02:53 06.02
03:53 06.02
04:53 06.02
05:53 06.02
06:53 06.02
07:53 06.02
08:53 06.02
09:53 06.02
10:53 06.02
11:53 06.02
12:53 06.02
13:53 06.02
14:53 06.02
15:53 06.02
16:53 06.02
17:53 06.02
Ветер
(напр.,м/с)
Видим. Явления Облачность Т
(С)
Тd
(С)
f
(%)
Тe
(С)
Тes
(С)
Комфортность P
(гПа)
Po
(гПа)
Тmin
(С)
Tmax
(С)
R
(мм)
R24
(мм)
S
(см)
ЮВ 4 16 км ясно +10.0 -3.3 39 +8 +8 1016.0 996.8
ЮВ 3 16 км ясно +8.9 -3.3 42 +7 +7 1016.5 997.2
Ю 3 16 км ясно +8.9 -3.3 42 +7 +7 1017.0 997.5
Ю 4 16 км ясно +7.8 -3.3 45 +5 +5 1016.8 997.5
Ю 4 16 км ясно +7.2 -2.8 49 +4 +4 1016.2 996.8
Ю 4 16 км ясно +7.8 -2.2 49 +5 +5 1015.4 996.2 +7.2 +11.1
Ю 5
{9}
16 км ясно +7.8 -1.7 51 +5 +5 1015.0 995.8
ЮЗ 3 16 км ясно +7.8 -1.1 53 +6 +6 1014.8 995.8
ЮЗ 3 16 км ясно +7.2 0.0 60 +5 +5 1014.7 995.5
ЮЗ 3 16 км ясно +7.8 +1.7 65 +5 +5 1014.6 995.5
З 4 16 км ясно +7.8 +2.2 68 +5 +5 1015.3 996.2
З 5 16 км ясно +6.1 +1.1 70 +2 +2 1016.1 996.8 +6.1 +8.3
З 4 16 км ясно +4.4 -0.6 70 0 0 1016.9 997.5
З 2 16 км ясно +3.9 -1.1 70 +1 +1 1017.7 998.2
З 3 16 км ясно +5.6 -0.6 64 +3 +3 1018.3 998.8
З 3 16 км ясно +7.2 -1.1 56 +5 +7 1018.8 999.5
ЮЗ 4 16 км ясно +10.0 -0.6 48 +8 +11 1019.1 999.8
З 4 16 км ясно +12.8 -1.1 38 +11 +16 1018.3 999.2 +3.3 +12.8
З 4 16 км ясно +15.0 -1.7 32 +14 +19 1017.6 998.5
З 4
{10}
16 км ясно +16.7 -2.8 26 +16 +21 1017.1 997.8
З 5
{10}
16 км ясно +17.2 -3.3 24 +17 +19 1017.1 998.2
З 6
{10}
16 км ясно +17.2 -3.3 24 +16 +18 1017.5 998.5
З 5 16 км ясно +16.1 -3.3 26 +15 +16 1017.7 998.5
СЗ 2 16 км ясно +13.3 -3.3 31 +13 +13 1018.7 999.5 +12.8 +17.8
штиль 0 16 км ясно +10.0 -2.8 41 +10 +10 1019.0 999.8
штиль 0 16 км ясно +6.7 -2.8 51 +6 +6 1019.2 999.8
штиль 0 16 км ясно +3.9 -3.3 59 +3 +3 1019.5 1000.2
штиль 0 16 км ясно +3.3 -2.8 64 +3 +3 1019.8 1000.5
штиль 0 16 км ясно +1.7 -3.9 66 +1 +1 1019.7 1000.5
ЮВ 3 16 км ясно +0.6 -3.9 72 -4 -4 1019.7 1000.2 +13.9
штиль 0 16 км ясно -1.7 -5.0 78 -3 -3 1019.3 999.8
В 3 16 км ясно -0.6 -4.4 75 -5 -5 1019.4 1000.2
ЮВ 4 16 км ясно -1.7 -5.0 78 -7 -7 1019.3 1000.2
ЮВ 3 16 км ясно -2.8 -5.6 81 -8 -8 1019.3 999.8
ЮВ 4 16 км ясно -2.2 -5.0 81 -8 -8 1018.8 999.5
ЮВ 4 16 км ясно -2.2 -5.0 81 -8 -8 1018.9 999.5 -2.8 +0.6
ЮВ 5 16 км ясно -1.7 -5.0 78 -8 -8 1018.5 999.2
ЮВ 4 16 км ясно +1.1 -3.3 72 -4 -4 1017.8 998.2
В 5 16 км ясно +6.1 -2.2 55 +2 +3 1017.0 997.5
ЮВ 6 16 км ясно +10.6 +1.7 54 +8 +9 1016.5 997.2
ЮВ 9
{14}
16 км ясно +15.0 +5.6 53 +13 +13 1014.9 995.5
Ю 8
{12}
16 км ясно +17.2 +7.2 52 +16 +17 1012.9 993.8 -2.2 +17.2
Ю 12
{19}
16 км ясно +18.9 +7.8 48 +18 +18 1010.8 991.5
Ю 11
{17}
16 км ясно +19.4 +8.3 49 +19 +19 1009.2 990.2
Ю 11
{19}
16 км ясно +18.9 +7.8 48 +18 +18 1008.2 989.2
Ю 11
{16}
16 км ясно +18.9 +7.8 48 +18 +18 1007.2 988.2
Ю 9
{13}
16 км ясно +18.3 +8.3 52 +18 +18 1007.8 988.5
Ю 7 16 км ясно +17.8 +8.9 56 +17 +17 1007.9 988.9 +17.2 +19.4
Местоположение метеостанции Jefferson City Memorial Airport: широта 38.5944 долгота -92.1558 высота над уровнем моря 167 м.
В архиве по умолчанию представлена погода в Джефферсон-Сити за последние 1-2 суток. Обновление информации о фактической погоде в базе происходит ежечасно! Архивные данные за месяц целиком и за предыдущие месяцы Вы можете получить, выбрав интересующий диапазон дат из раскрывающегося списка и нажав кнопку "Ввод!".
Внимание! Архив погоды МЕТАР в базе сайта по станциям, не включенным в климатический монитор, хранится не более 60 дней. Нет смысла пытаться выбрать более раннюю дату.
*Определитесь, кто Вы:
Внимание! Время в таблицах - местное (без учета летнего времени). Для получения всемирного времени необходимо вычесть поправку, которая равна -6 ч.
Смотрите также архив погоды в соседних городах и на ближайших метеорологических станциях:
Партнеры нашего сайта:      
Пояснения к столбцам:
  • Ветер - указаны скорость ветра в м/с - средняя за 10 мин, порывы в срок и между сроками (в фигурных скобках) и направление, откуда дует ветер: С - северный,
  • СВ - северо-восточный, В - восточный, ЮВ - юго-восточный, Ю - южный, ЮЗ - юго-западный, З - западный, СЗ - северо-западный.
  • Видимость - горизонтальная дальность видимости в метрах или километрах. При видимости от 1 до 10 км при отсутствии осадков обычно наблюдается дымка, при ухудшении видимости до 1 км и менее - туман. В сухую погоду видимость может ухудшаться дымом, пылью или мглою.
  • Явления - указаны атмосферные явления, наблюдавшиеся в срок или в последний час перед сроком; фигурными скобками обозначены явления, наблюдавшиеся между сроками (за 1-3 часа до срока); квадратными скобками обозначены град или гололедные отложения с указанием их диаметра в мм.
  • Облачность - указаны через наклонную черту общая и нижняя облачность в баллах и высота нижней границы облаков в метрах; квадратными скобками обозначены формы облаков: Ci - перистые, Cs - перисто-слоистые, Cc - перисто-кучевые, Ac - высококучевые, As - высокослоистые, Sc - слоисто-кучевые, Ns - слоисто-дождевые, Cu - кучевые, Cb - кучево-дождевые. Подробнее классификацию облаков см. в Атласе облаков (PDF).
  • T - Температура воздуха - температура, измеренная на высоте 2 м над землей.
  • Td - Температура точки росы - температура, при понижении до которой содержащийся в воздухе водяной пар достигнет насыщения.
  • f - Относительная влажность воздуха - влажноcть воздуха, измеренная на высоте 2 м над землей.
  • Te - Эффективная температура - температура, которую ощущает одетый по сезону человек в тени. Характеристика душности погоды. При расчете учитывается влияние влажности воздуха и скорости ветра на теплоощущения человека.
  • Tes - Эффективная температура на солнце - температура, которую ощущает человек, с поправкой на солнечный нагрев. Характеристика знойности погоды. Зависит от высоты солнца над горизонтом, облачности и скорости ветра. Ночью, в пасмурную погоду, а также при ветре 12 м/с и более поправка равна нулю.
  • P - Атмосферное давление - приведенное к уровню моря атмосферное давление.
  • Po - Атмосферное давление - измеренное на уровне метеостанции атмосферное давление.
  • Tmin - Минимальная температура - минимум температуры воздуха на высоте 2 м над землей.
  • Tmax - Максимальная температура - максимум температуры воздуха на высоте 2 м над землей.
  • R - Количество осадков - Количество выпавших осадков за период времени, мм. При наведении курсора мыши на число - период времени, за который выпало указанное количество осадков.
  • R24 - Количество осадков - Количество выпавших осадков за 24 часа, мм.
  • S - Снежный покров - Высота снежного покрова, см. При наведении курсора мыши на число - состояние снежного покрова и степень покрытия местности в баллах.